TimeCST,TemperatureF,Dew PointF,Humidity,Sea Level PressureIn,VisibilityMPH,Wind Direction,Wind SpeedMPH,Gust SpeedMPH,PrecipitationIn,Events,Conditions,WindDirDegrees,DateUTC
12:00 AM,83,78,82,29.91,12,East,8.1,,,,Partly Cloudy,100,2013-05-24 06:00:00
3:00 AM,82,78,86,29.88,12,East,6.9,,,,Partly Cloudy,100,2013-05-24 09:00:00
5:00 AM,82.4,78.8,89,29.89,6.2,East,5.8,-,N/A,,Mostly Cloudy,100,2013-05-24 11:00:00
6:00 AM,82,76,79,29.93,12,East,6.9,,,,Partly Cloudy,100,2013-05-24 12:00:00
6:00 AM,82.4,77.0,84,29.92,6.2,East,6.9,-,N/A,,Mostly Cloudy,100,2013-05-24 12:00:00
7:00 AM,84.2,77.0,79,29.95,6.2,East,9.2,-,N/A,,Mostly Cloudy,100,2013-05-24 13:00:00
8:00 AM,86.0,78.8,79,29.95,6.2,East,10.4,-,N/A,,Mostly Cloudy,100,2013-05-24 14:00:00
9:00 AM,86,78,70,29.97,12,East,10.4,,,,Partly Cloudy,80,2013-05-24 15:00:00
9:00 AM,86.0,77.0,74,29.97,6.2,East,10.4,-,N/A,,Mostly Cloudy,80,2013-05-24 15:00:00
10:00 AM,87.8,77.0,70,29.97,6.2,East,12.7,-,N/A,,Mostly Cloudy,80,2013-05-24 16:00:00
11:00 AM,87.8,77.0,70,29.98,6.2,East,12.7,-,N/A,,Mostly Cloudy,90,2013-05-24 17:00:00
12:00 PM,89,77,61,29.96,12,East,12.7,,,,Partly Cloudy,90,2013-05-24 18:00:00
12:00 PM,89.6,77.0,66,29.95,6.2,East,12.7,-,N/A,,Mostly Cloudy,90,2013-05-24 18:00:00
1:00 PM,87.8,77.0,70,29.94,6.2,East,13.8,-,N/A,,Mostly Cloudy,80,2013-05-24 19:00:00
2:00 PM,87.8,75.2,66,29.93,6.2,East,12.7,-,N/A,,Mostly Cloudy,90,2013-05-24 20:00:00
3:00 PM,87,77,64,29.92,12,East,13.8,,,,Mostly Cloudy,80,2013-05-24 21:00:00
3:00 PM,87.8,77.0,70,29.92,6.2,East,13.8,-,N/A,,Mostly Cloudy,80,2013-05-24 21:00:00
4:00 PM,86.0,75.2,70,29.91,6.2,East,11.5,-,N/A,,Mostly Cloudy,80,2013-05-24 22:00:00
5:00 PM,86.0,75.2,70,29.89,6.2,East,11.5,-,N/A,,Mostly Cloudy,80,2013-05-24 23:00:00
6:00 PM,85,75,66,29.92,12,East,11.5,,,,Partly Cloudy,80,2013-05-25 00:00:00
6:00 PM,84.2,75.2,74,29.92,6.2,East,11.5,-,N/A,,Mostly Cloudy,80,2013-05-25 00:00:00
9:00 PM,83,76,74,29.99,12,East,11.5,,,,Partly Cloudy,90,2013-05-25 03:00:00